Location: Calvera
(42.3882°N, 0.6137°E)
Time: 14:23:42
(UTC+00:00)

Cosmos 2084 - Pass Details

Date: 28 October 2020
Orbit: 564 x 619 km, 62.8° (Epoch: 25 November)

Event Time Altitude Azimuth Distance (km) Brightness Sun altitude
Exits shadow 05:18:48 10° 231° (SW) 1,886 5.6 -13.0°
Maximum altitude 05:23:00 56° 310° (NW) 706 3.6 -12.3°
Drops below altitude 10° 05:27:19 10° 29° (NNE) 1,944 6.4 -11.5°
Sets 05:29:39 0° 34° (NE) 2,860 7.3 -11.0°
